Location: Bluff Heights
(33.7692°N, 118.1592°W)
Time: 08:22:12
(UTC+00:00)

ADEOS Rocket - Pass Details

Date: 29 October 2020
Orbit: 859 x 1306 km, 98.7° (Epoch: 28 November)

Event Time Altitude Azimuth Distance (km) Brightness Sun altitude
Rises 12:41:26 0° 187° (S) 3,461 5.9 -18.9°
Reaches altitude 10° 12:44:01 10° 196° (SSW) 2,502 5.0 -18.3°
Maximum altitude 12:49:01 36° 262° (W) 1,335 3.2 -17.3°
Drops below altitude 10° 12:54:04 10° 328° (NNW) 2,523 4.8 -16.3°
Sets 12:56:41 0° 337° (NNW) 3,494 5.6 -15.7°
